Location: Amberg
(48.0613°N, 10.6820°E)
Time: 07:22:40
(UTC+00:00)

YAOGAN 1 - Pass Details

Date: 18 November 2025
Orbit: 605 x 607 km, 97.8° (Epoch: 13 December)

Event Time Altitude Azimuth Distance (km) Brightness Sun altitude
Rises 18:17:41 0° 187° (S) 2,853 6.1 -26.8°
Reaches altitude 10° 18:19:59 10° 196° (SSW) 1,954 5.3 -27.1°
Maximum altitude 18:23:54 35° 263° (W) 981 4.0 -27.8°
Drops below altitude 10° 18:27:51 10° 330° (NNW) 1,968 5.5 -28.5°
Sets 18:30:11 0° 340° (NNW) 2,877 6.3 -28.8°
